Flag for Uruguay Weather past 2 weeks in Canelones, Uruguay

Now
63 °F

Clear.


Feels Like: 63 °F
Forecast: 61 / 80 °F
Wind: 12 mph from North

Location: Carrasco

Current Time: Aug 28, 2015 at 10:13:15 PM

Latest Report: Aug 28, 2015 at 10:00 PM


Visibility: 10 mi

Pressure: 29.83 "Hg

Humidity: 56%

Dew point: 46 °F

Location of CanelonesLocation

Historic Weather in Canelones — Graph

°F

Canelones temperature yesterday

Maximum temperature yesterday: 63 °F (at 4:00 PM)
Minimum temperature yesterday: 48 °F (at 12:00 AM)
Average temperature yesterday: 55 °F

Past Weeks' High & Low Weather Summary

 TemperatureHumidityPressure
High73 °F (Aug 28, 2:00 PM)100% (Aug 14, 10:00 PM)30.33 "Hg (Aug 14, 10:00 PM)
Low43 °F (Aug 16, 4:00 AM)33% (Aug 28, 3:00 PM)29.68 "Hg (Aug 22, 3:00 PM)
Average56 °F79%30.03 "Hg
* Reported Aug 13 9:00 PM — Aug 28 9:00 PM, Canelones, Weather by CustomWeather, © 2015

Note: Actual official high and low records may vary slightly from our data, if they occured in-between our weather recording intervals... More about our weather records

Advertising

Canelones weather history for previous 24 hours

 ConditionsComfort  
Time TempWeatherWind HumidityBarometerVisibility
9:00 PM
Fri, Aug 28
63 °FClear.14 mph56%29.83 "Hg10 mi
8:00 PM63 °FClear.13 mph56%29.83 "Hg10 mi
7:00 PM64 °FClear.10 mph56%29.83 "Hg10 mi
6:00 PM68 °FClear.14 mph46%29.83 "Hg10 mi
5:00 PM70 °FSunny.14 mph40%29.86 "Hg10 mi
4:00 PM73 °FSunny.16 mph38%29.89 "Hg10 mi
3:00 PM73 °FSunny.20 mph33%29.92 "Hg10 mi
2:00 PM73 °FSunny.17 mph61%29.95 "Hg10 mi
1:00 PM72 °FSunny.14 mph36%29.98 "Hg10 mi
12:00 PM66 °FSunny.13 mph46%30.04 "Hg10 mi
11:00 AM64 °FSunny.9 mph49%30.04 "Hg10 mi
10:00 AM59 °FSunny.9 mph59%30.04 "Hg10 mi
9:00 AM52 °FSunny.6 mph82%30.07 "Hg10 mi
8:00 AM48 °FSunny.7 mph82%30.04 "Hg10 mi
7:00 AM48 °FSunny.7 mph82%30.04 "Hg10 mi
6:00 AM46 °FClear.6 mph87%30.04 "Hg10 mi
5:00 AM46 °FClear.5 mph82%30.04 "Hg10 mi
4:00 AM45 °FClear.3 mph87%30.04 "Hg10 mi
3:00 AM46 °FClear.5 mph82%30.04 "Hg10 mi
2:00 AM48 °FClear.5 mph82%30.04 "Hg10 mi
1:00 AM50 °FClear.3 mph82%30.04 "Hg10 mi
12:00 AM48 °FClear.5 mph82%30.04 "Hg10 mi
11:00 PM
Thu, Aug 27
48 °FClear.5 mph82%30.04 "Hg10 mi
10:00 PM50 °FClear.6 mph76%30.01 "Hg10 mi
Weather by CustomWeather, © 2015

See weather overviewHow to use our weather pages